FW1003 Weather Reports


Display with metric or nautical units.
time (UTC)temp
F
wind
direction
speed
MPH
gust
MPH
rain 1hr
in
rain 24hr
in
rain mn
in
humidity
%
barometer
mb
20260903083024 92 62 2.0 8.0 0.00 0.00 0.00 57 1011.4
20260903081521 92 183 2.0 5.0 0.00 0.00 0.00 56 1011.6
20260903080019 91 178 2.0 7.0 0.00 0.00 0.00 57 1011.6
20260903074516 91 200 2.0 7.0 0.00 0.00 0.00 58 1011.7
20260903073032 91 173 0.0 5.0 0.00 0.00 0.00 58 1011.6
20260903071509 89 165 2.0 6.0 0.00 0.00 0.00 61 1011.4
20260903070007 89 158 2.0 6.0 0.00 0.00 0.00 59 1011.7
20260903064505 89 192 1.0 3.0 0.00 0.00 0.00 62 1011.8
20260903063004 89 183 0.0 6.0 0.00 0.00 0.00 62 1011.7
20260903061611 89 264 0.0 2.0 0.00 0.00 0.00 61 1011.5
20260903060104 89 298 0.0 4.0 0.00 0.00 0.00 62 1011.5
20260903054555 87 34 3.0 8.0 0.00 0.00 0.00 65 1011.5
20260903053105 86 321 2.0 4.0 0.00 0.00 0.00 67 1011.8
20260903051548 85 315 1.0 2.0 0.00 0.00 0.00 68 1011.8
20260903050045 85 314 0.0 2.0 0.00 0.00 0.00 70 1011.7
20260903044541 83 315 1.0 2.0 0.00 0.00 0.00 72 1011.7
20260903043041 82 315 0.0 1.0 0.00 0.00 0.00 74 1011.8
20260903041539 81 315 0.0 0.0 0.00 0.00 0.00 75 1011.8
20260903040030 80 315 0.0 1.0 0.00 0.00 0.00 74 1011.8
20260903034526 79 315 0.0 1.0 0.00 0.00 0.00 74 1011.5
20260903033022 79 315 0.0 2.0 0.00 0.00 0.00 73 1011.5
20260903031518 80 315 0.0 1.0 0.00 0.00 0.00 73 1011.3
20260903030024 80 315 0.0 2.0 0.00 0.00 0.00 73 1011.4
20260903024516 80 315 0.0 1.0 0.00 0.00 0.00 73 1011.5
20260903023016 80 315 0.0 0.0 0.00 0.00 0.00 73 1011.4
20260903021515 80 315 0.0 0.0 0.00 0.00 0.00 73 1011.3
20260903020014 80 315 0.0 1.0 0.00 0.00 0.00 72 1011.3
20260903014514 80 315 0.0 0.0 0.00 0.00 0.00 72 1011.2
20260903013025 80 315 0.0 0.0 0.00 0.00 0.00 71 1011.2
20260903011515 80 315 0.0 0.0 0.00 0.00 0.00 72 1011.1
20260903010026 80 315 0.0 2.0 0.00 0.00 0.00 71 1011.1
20260903004511 80 315 0.0 0.0 0.00 0.00 0.00 71 1011.2
20260903003011 80 314 0.0 0.0 0.00 0.00 0.00 71 1011.3
20260903001510 80 315 0.0 0.0 0.00 0.00 0.00 71 1011.3
20260903000010 80 314 0.0 0.0 0.00 0.00 0.00 71 1011.2
20260902234514 79 314 0.0 0.0 0.00 0.00 0.00 70 1011.4
20260902233009 79 315 0.0 2.0 0.00 0.00 0.00 70 1011.4
20260902231507 79 314 0.0 2.0 0.00 0.00 0.00 70 1011.2
20260902230006 79 315 1.0 3.0 0.00 0.00 0.00 70 1011.4
20260902224505 79 314 0.0 2.0 0.00 0.00 0.00 72 1011.4
20260902223007 79 314 0.0 2.0 0.00 0.00 0.00 73 1011.3
20260902221504 79 314 0.0 2.0 0.00 0.00 0.00 73 1011.4
20260902220104 80 314 0.0 0.0 0.00 0.00 0.00 72 1011.3
20260902214603 80 314 0.0 2.0 0.00 0.00 0.00 72 1011.3
20260902214502 80 314 0.0 2.0 0.00 0.00 0.00 72 1011.3
20260902213058 80 314 0.0 1.0 0.00 0.00 0.00 71 1011.3
20260902211556 81 314 0.0 1.0 0.00 0.00 0.00 71 1011.4
20260902210055 81 314 0.0 0.0 0.00 0.00 0.00 70 1011.5
20260902204556 81 314 1.0 2.0 0.00 0.00 0.00 71 1011.4
20260902203054 81 314 0.0 2.0 0.00 0.00 0.00 71 1011.3
20260902201558 81 314 0.0 1.0 0.00 0.00 0.00 70 1011.3
20260902200054 81 314 1.0 4.0 0.00 0.00 0.00 71 1011.2
20260902194554 81 304 0.0 1.0 0.00 0.00 0.00 70 1011.3
20260902193103 81 304 0.0 1.0 0.00 0.00 0.00 69 1011.2
20260902191603 82 304 0.0 2.0 0.00 0.00 0.00 69 1011.2
20260902190050 83 304 0.0 1.0 0.00 0.00 0.00 68 1011.3
20260902184550 83 304 1.0 4.0 0.00 0.00 0.00 68 1011.3
20260902183110 83 300 0.0 5.0 0.00 0.00 0.00 68 1011.1
20260902181555 84 300 2.0 5.0 0.00 0.00 0.00 68 1011.0
20260902180047 84 320 2.0 6.0 0.00 0.00 0.00 68 1011.1
20260902174547 84 300 1.0 5.0 0.00 0.00 0.00 67 1011.2
20260902173047 84 313 2.0 5.0 0.00 0.00 0.00 67 1011.1
20260902171553 84 302 2.0 4.0 0.00 0.00 0.00 66 1011.2
20260902170045 85 323 1.0 6.0 0.00 0.00 0.00 65 1011.0
20260902164544 85 320 3.0 8.0 0.00 0.00 0.00 65 1011.1
20260902163053 85 319 2.0 9.0 0.00 0.00 0.00 65 1011.0
20260902161543 85 304 3.0 6.0 0.00 0.00 0.00 66 1010.9
20260902160042 85 322 0.0 8.0 0.00 0.00 0.00 65 1010.8
20260902154643 86 307 2.0 6.0 0.00 0.00 0.00 64 1010.9
20260902153051 86 318 2.0 10.0 0.00 0.00 0.00 64 1011.0
20260902151541 87 295 2.0 9.0 0.00 0.00 0.00 64 1011.0
20260902150039 87 360 2.0 12.0 0.00 0.00 0.00 63 1011.0
20260902144540 87 331 2.0 9.0 0.00 0.00 0.00 63 1011.1
20260902143037 88 327 3.0 10.0 0.00 0.00 0.00 61 1011.2
20260902141537 89 317 1.0 10.0 0.00 0.00 0.00 60 1011.2
20260902140036 89 327 2.0 11.0 0.00 0.00 0.00 58 1011.1
20260902134543 89 355 4.0 10.0 0.00 0.00 0.00 59 1011.2
20260902133034 90 326 2.0 11.0 0.00 0.00 0.00 57 1011.1
20260902131541 91 306 2.0 11.0 0.00 0.00 0.00 57 1011.3
20260902130035 90 42 4.0 12.0 0.00 0.00 0.00 58 1011.3
20260902124531 91 306 4.0 12.0 0.00 0.00 0.00 57 1011.3
20260902123034 91 344 4.0 10.0 0.00 0.00 0.00 57 1011.5
20260902121529 92 298 4.0 12.0 0.00 0.00 0.00 56 1011.6
20260902120028 92 333 5.0 11.0 0.00 0.00 0.00 56 1011.5
20260902114529 92 209 3.0 8.0 0.00 0.00 0.00 56 1011.7
20260902113029 92 280 3.0 11.0 0.00 0.00 0.00 56 1012.0
20260902111523 93 258 2.0 4.0 0.00 0.00 0.00 56 1012.0
20260902110033 93 5 2.0 11.0 0.00 0.00 0.00 57 1012.1
20260902104520 92 21 3.0 8.0 0.00 0.00 0.00 56 1012.2
20260902103020 92 307 2.0 11.0 0.00 0.00 0.00 57 1012.3
20260902101518 93 293 1.0 6.0 0.00 0.00 0.00 57 1012.3
20260902100017 92 315 2.0 8.0 0.00 0.00 0.00 57 1012.4
20260902094522 92 221 2.0 10.0 0.00 0.00 0.00 58 1012.4
20260902093024 92 207 2.0 10.0 0.00 0.00 0.00 58 1012.7
20260902091514 92 271 1.0 9.0 0.00 0.00 0.00 58 1012.8
20260902090013 92 324 3.0 6.0 0.00 0.00 0.00 57 1012.9
20260902084513 92 24 3.0 8.0 0.00 0.00 0.00 57 1013.0